Date String (YYYY-MM-DD hh:mm:ss) UTC,Instrument flags,absolute air pressure of the measurement (hPa),sample flow rate (lpm),inlet stack bypass flow (lpm),air temperature of the measurement (°C),ambient temperature measured by the external sensor (°C),aerosol sample conditioner tube jacket temperature (°C),OPC LED temperature (°C),internal box temperature (°C),relative humidity of the measurement (%),span deviation,mass concentration of particles derived from Lorenz-Mie calculation of OPC scattering (μg/m³),mass concentration of particles derived from Lorenz-Mie calculation of OPC scattering (μg/m³),mass concentration of particles derived from Lorenz-Mie calculation of OPC scattering (μg/m³)
DateTimeUTC,F1_M11,P_M11,Q1_M11,Q2_M11,T1_M11,T2_M11,T3_M11,T4_M11,T5_M11,U1_M11,ZSPAN_M11,X0_M11,X2_M11,X1_M11
2023-12-07 15:00:00,SystemResetWarning,0819.8,5.00,000.00,023.6,022.6,000.0,031.9,024.8,11.3,0000.0,0001.16,0000.68,0000.53
2023-12-07 15:01:00,SystemResetWarning,0819.7,5.02,000.00,023.5,022.6,000.0,031.9,024.8,11.3,0000.0,0001.08,0000.67,0000.54
2023-12-07 15:02:00,SystemResetWarning,0820.1,4.99,000.00,023.5,022.6,000.0,031.9,024.8,11.4,0000.0,0001.09,0000.67,0000.55
2023-12-07 15:03:00,SystemResetWarning,0820.0,4.99,000.00,023.5,022.6,000.0,031.9,024.8,11.5,0000.0,0002.45,0000.68,0000.56
2023-12-07 15:04:00,SystemResetWarning,0819.9,4.99,000.00,023.5,022.6,000.0,031.9,024.8,11.6,0000.0,0003.94,0000.70,0000.58
2023-12-07 15:05:00,SystemResetWarning,0819.9,5.00,000.00,023.5,022.6,000.0,031.9,024.8,11.5,0000.0,0003.96,0000.72,0000.59
2023-12-07 15:06:00,SystemResetWarning,0819.8,5.01,000.00,023.5,022.6,000.0,031.9,024.8,11.5,0000.0,0003.92,0000.72,0000.60
2023-12-07 15:07:00,SystemResetWarning,0819.8,5.00,000.00,023.5,022.6,000.0,031.9,024.8,11.5,0000.0,0003.80,0000.70,0000.60
2023-12-07 15:08:00,SystemResetWarning,0819.8,4.99,000.00,023.5,022.6,000.0,031.9,024.9,11.5,0000.0,0003.86,0000.72,0000.61
2023-12-07 15:09:00,SystemResetWarning,0819.7,5.00,000.00,023.5,022.6,000.0,031.9,024.9,11.6,0000.0,0003.96,0000.76,0000.62
2023-12-07 15:10:00,SystemResetWarning,0819.9,5.00,000.00,023.5,022.6,000.0,031.9,024.9,11.5,0000.0,0003.95,0000.77,0000.61
2023-12-07 15:11:00,SystemResetWarning,0819.5,5.01,000.00,023.5,022.6,000.0,031.9,024.8,11.6,0000.0,0003.99,0000.79,0000.63
2023-12-07 15:12:00,SystemResetWarning,0819.7,5.01,000.00,023.5,022.6,000.0,031.9,024.8,11.3,0000.0,0004.06,0000.81,0000.63
2023-12-07 15:13:00,SystemResetWarning,0819.4,4.99,000.00,023.5,022.6,000.0,031.9,024.9,11.5,0000.0,0004.15,0000.85,0000.65
2023-12-07 15:14:00,SystemResetWarning,0819.3,4.99,000.00,023.5,022.6,000.0,031.9,024.8,11.6,0000.0,0003.11,0000.83,0000.65
2023-12-07 15:15:00,SystemResetWarning,0819.5,5.01,000.00,023.5,022.6,000.0,031.9,024.8,11.6,0000.0,0001.28,0000.82,0000.65
2023-12-07 15:16:00,SystemResetWarning,0819.8,5.01,000.00,023.5,022.6,000.0,031.9,024.9,11.7,0000.0,0001.39,0000.87,0000.66
2023-12-07 15:17:00,SystemResetWarning,0819.8,5.00,000.00,023.5,022.6,000.0,031.9,024.9,11.7,0000.0,0001.47,0000.90,0000.67
2023-12-07 15:18:00,SystemResetWarning,0819.9,5.00,000.00,023.5,022.6,000.0,031.9,024.8,11.7,0000.0,0001.53,0000.94,0000.68
2023-12-07 15:19:00,SystemResetWarning,0819.9,5.00,000.00,023.5,022.6,000.0,031.9,024.9,11.5,0000.0,0001.54,0000.95,0000.69
2023-12-07 15:20:00,SystemResetWarning,0819.9,5.00,000.00,023.5,022.6,000.0,031.9,024.9,11.4,0000.0,0002.05,0000.99,0000.71
2023-12-07 15:21:00,SystemResetWarning,0819.8,5.00,000.00,023.5,022.6,000.0,031.9,024.9,11.5,0000.0,0003.99,0001.05,0000.72
2023-12-07 15:22:00,SystemResetWarning,0819.9,5.00,000.00,023.5,022.6,000.0,031.9,024.9,11.4,0000.0,0004.12,0001.07,0000.72
2023-12-07 15:23:00,SystemResetWarning,0819.9,4.99,000.00,023.6,022.6,000.0,031.9,024.9,11.5,0000.0,0004.16,0001.09,0000.73
2023-12-07 15:24:00,SystemResetWarning,0820.0,4.99,000.00,023.6,022.7,000.0,031.9,025.0,11.6,0000.0,0004.21,0001.08,0000.73
2023-12-07 15:25:00,SystemResetWarning,0819.9,5.01,000.00,023.6,022.7,000.0,031.9,025.0,11.5,0000.0,0005.50,0001.09,0000.73
2023-12-07 15:26:00,SystemResetWarning,0819.9,5.00,000.00,023.6,022.7,000.0,031.9,025.0,11.5,0000.0,0005.56,0001.11,0000.73
2023-12-07 15:27:00,SystemResetWarning,0819.6,5.00,000.00,023.6,022.7,000.0,031.9,025.0,11.5,0000.0,0005.65,0001.16,0000.74
2023-12-07 15:28:00,SystemResetWarning,0819.5,5.00,000.00,023.6,022.7,000.0,031.9,024.9,11.5,0000.0,0005.68,0001.16,0000.75
2023-12-07 15:29:00,SystemResetWarning,0819.9,5.01,000.00,023.6,022.7,000.0,031.9,024.9,11.5,0000.0,0005.71,0001.16,0000.75
2023-12-07 15:30:00,SystemResetWarning,0820.0,4.99,000.00,023.6,022.7,000.0,031.9,025.0,11.5,0000.0,0006.25,0001.17,0000.73
2023-12-07 15:31:00,SystemResetWarning,0820.1,4.99,000.00,023.6,022.7,000.0,031.9,025.0,11.5,0000.0,0006.26,0001.13,0000.72
2023-12-07 15:32:00,SystemResetWarning,0819.8,4.99,000.00,023.6,022.7,000.0,031.9,025.0,11.4,0000.0,0004.76,0001.06,0000.70
2023-12-07 15:33:00,SystemResetWarning,0819.8,5.00,000.00,023.6,022.7,000.0,031.9,025.0,11.6,0000.0,0003.93,0001.01,0000.70
2023-12-07 15:34:00,SystemResetWarning,0820.0,5.01,000.00,023.6,022.7,000.0,031.9,024.9,11.6,0000.0,0004.71,0000.99,0000.69
2023-12-07 15:35:00,SystemResetWarning,0820.0,5.01,000.00,023.6,022.7,000.0,031.9,025.0,11.6,0000.0,0004.66,0000.98,0000.69
2023-12-07 15:36:00,SystemResetWarning,0819.9,5.01,000.00,023.6,022.7,000.0,031.9,025.0,11.5,0000.0,0003.75,0000.97,0000.68
2023-12-07 15:37:00,SystemResetWarning,0820.0,5.00,000.00,023.6,022.7,000.0,031.9,025.0,11.3,0000.0,0003.42,0000.97,0000.67
2023-12-07 15:38:00,SystemResetWarning,0820.3,4.99,000.00,023.7,022.8,000.0,031.9,025.0,11.5,0000.0,0003.53,0000.95,0000.66
2023-12-07 15:39:00,SystemResetWarning,0819.9,4.99,000.00,023.7,022.8,000.0,031.9,025.0,11.5,0000.0,0006.05,0001.25,0000.67
2023-12-07 15:40:00,SystemResetWarning,0819.9,5.01,000.00,023.7,022.8,000.0,031.9,025.1,11.5,0000.0,0006.84,0001.33,0000.67
2023-12-07 15:41:00,SystemResetWarning,0820.1,5.00,000.00,023.7,022.8,000.0,031.9,025.1,11.4,0000.0,0006.40,0001.32,0000.68
2023-12-07 15:42:00,SystemResetWarning,0820.3,5.00,000.00,023.7,022.9,000.0,031.9,025.1,11.3,0000.0,0006.26,0001.34,0000.69
2023-12-07 15:43:00,SystemResetWarning,0820.1,5.00,000.00,023.7,022.9,000.0,032.0,025.2,11.2,0000.0,0007.92,0001.45,0000.69
2023-12-07 15:44:00,SystemResetWarning,0819.9,5.00,000.00,023.7,022.9,000.0,032.0,025.1,11.1,0000.0,0008.86,0001.56,0000.70
2023-12-07 15:45:00,SystemResetWarning,0819.8,5.00,000.00,023.8,022.9,000.0,032.0,025.1,11.2,0000.0,0009.11,0001.57,0000.69
2023-12-07 15:46:00,SystemResetWarning,0819.8,5.00,000.00,023.8,023.0,000.0,032.0,025.2,11.2,0000.0,0009.52,0001.56,0000.69
2023-12-07 15:47:00,SystemResetWarning,0820.0,5.01,000.00,023.8,023.0,000.0,032.0,025.2,11.0,0000.0,0009.60,0001.61,0000.68
2023-12-07 15:48:00,SystemResetWarning,0819.9,5.01,000.00,023.8,023.0,000.0,032.0,025.2,11.0,0000.0,0009.68,0001.67,0000.69
2023-12-07 15:49:00,SystemResetWarning,0820.0,4.99,000.00,023.8,023.0,000.0,032.0,025.2,11.0,0000.0,0009.82,0001.67,0000.70
2023-12-07 15:50:00,SystemResetWarning,0820.2,4.99,000.00,023.8,023.1,000.0,032.0,025.2,11.0,0000.0,0008.84,0001.39,0000.69
2023-12-07 15:51:00,SystemResetWarning,0820.1,5.00,000.00,023.8,023.1,000.0,032.1,025.2,11.1,0000.0,0008.11,0001.23,0000.67
2023-12-07 15:52:00,SystemResetWarning,0820.1,5.02,000.00,023.9,023.1,000.0,032.1,025.2,11.2,0000.0,0008.07,0001.21,0000.67
2023-12-07 15:53:00,SystemResetWarning,0820.0,5.01,000.00,023.9,023.0,000.0,032.1,025.2,11.4,0000.0,0008.04,0001.19,0000.66
2023-12-07 15:54:00,SystemResetWarning,0820.0,4.98,000.00,023.9,023.0,000.0,032.1,025.2,11.3,0000.0,0006.66,0001.11,0000.65
2023-12-07 15:55:00,SystemResetWarning,0820.0,5.01,000.00,023.9,023.0,000.0,032.1,025.2,11.3,0000.0,0004.58,0000.98,0000.64
2023-12-07 15:56:00,SystemResetWarning,0820.0,5.02,000.00,023.9,023.1,000.0,032.1,025.2,11.5,0000.0,0003.86,0000.96,0000.63
2023-12-07 15:57:00,SystemResetWarning,0819.9,4.99,000.00,023.9,023.1,000.0,032.1,025.2,11.5,0000.0,0003.20,0000.99,0000.63
2023-12-07 15:58:00,SystemResetWarning,0819.8,4.99,000.00,023.9,023.1,000.0,032.1,025.2,11.2,0000.0,0003.00,0000.94,0000.64
2023-12-07 15:59:00,SystemResetWarning,0819.7,4.99,000.00,023.9,023.1,000.0,032.1,025.2,11.2,0000.0,0002.74,0000.85,0000.62
